Miscellaneous Local Product
Issued by NWS North Platte, NE

Home | Current Version | Previous Version | Graphics & Text | Print | Product List | Glossary On
Versions: 1 2 3 4 5 6 7 8 9 10 11 12 13 14 15 16 17 18 19 20 21 22 23 24 25 26 27 28 29 30 31 32 33 34 35 36 37 38 39 40 41 42 43 44 45 46 47 48 49 50
000
AXUS43 KLBF 270710
MISLBF


WESTERN AND NORTH CENTRAL NEBRASKA HOURLY WEATHER ROUNDUP
NATIONAL WEATHER SERVICE NORTH PLATTE NE
200 AM CDT TUE JUN 27 2017

NOTE: "FAIR" INDICATES FEW OR NO CLOUDS BELOW 12,000 FEET WITH NO
SIGNIFICANT WEATHER AND/OR OBSTRUCTIONS TO VISIBILITY.

NOTE: STATIONS NOT REPORTING VARIABLES SUCH AS SKY/WEATHER OR
PRESSURE ARE PROVIDED BY RAWS AND APRS NETWORKS AND ARE NOT UNDER
NATIONAL WEATHER SERVICE QUALITY CONTROL.

...OBSERVATIONS IN AND NEAR THE EASTERN PANHANDLE OF NEBRASKA...

CITY           SKY/WX    TMP DP  RH WIND       PRES   REMARKS
PINE RIDGE     CLEAR     64  42  44 S24G35    29.99F
GORDON         FAIR      59  42  53 S8        30.05F
CHADRON        CLEAR     66  44  45 S32G38    29.95F
ALLIANCE       CLEAR     60  46  59 S16G22    30.06F
SIDNEY         CLEAR     60  54  80 S16G23    30.11F
CRESCENT LAKE    N/A     60  48  64 SE9G16      N/A
$$

...OBSERVATIONS IN NORTHERN NEBRASKA AND FAR SOUTHERN SOUTH DAKOTA...

CITY           SKY/WX    TMP DP  RH WIND       PRES   REMARKS
WINNER         FAIR      59  41  51 SE13      30.06F
VALENTINE      CLEAR     59  40  49 SE10      30.07F
THEDFORD       CLEAR     55  45  68 SE7       30.11F
AINSWORTH      CLEAR     56  44  62 S12       30.10S
O`NEILL        CLEAR     53  44  73 SE6       30.12F
ORD            CLEAR     50  44  80 S3        30.12F
BROKEN BOW     CLEAR     53  47  79 SE6       30.12F
VALENTINE NWR    N/A     54  41  62 S7          N/A
HALSEY           N/A     56  44  64 SE7         N/A
BUTTE            N/A     52  42  68 SE9         N/A
CHAMBERS         N/A     52  40  64 CALM        N/A
EWING            N/A     52  45  78 CALM        N/A
$$

...OBSERVATIONS IN SOUTHWEST NEBRASKA AND FAR NORTHEAST COLORADO...

CITY           SKY/WX    TMP DP  RH WIND       PRES   REMARKS
WRAY           FAIR      61  54  77 SE10      30.12F
IMPERIAL       CLEAR     59  54  83 SE8       30.11F
OGALLALA       CLEAR     62  50  65 SE9       30.11S
NORTH PLATTE   CLEAR     55  52  89 E8        30.11F
MCCOOK         CLEAR     61  58  90 E10       30.11F
LEXINGTON      CLEAR     60  56  88 SE7       30.13F
STAPLETON        N/A     56  48  73 CALM        N/A
GOTHENBURG       N/A     56  49  76 E3          N/A
CALLAWAY         N/A     58  50  75 SE12        N/A
$$

...OBSERVATIONS IN CENTRAL LINCOLN COUNTY AREA...

CITY           SKY/WX    TMP DP  RH WIND       PRES   REMARKS
N.P. AIRPORT   CLEAR     55  52  89 E8        30.11F
N.P. DOWNTOWN    N/A     60  52  76 CALM        N/A
N.P. SOUTHEAST   N/A     59  52  76 E3          N/A
N.P. HILLCREST   N/A     58  51  79 SE10        N/A
$$

...SOME OBSERVATIONS FROM AROUND THE REGION...

CITY           SKY/WX    TMP DP  RH WIND       PRES   REMARKS
DENVER         CLOUDY    64  44  48 S15       30.08F
LIMON          CLEAR     56  54  93 SE6       30.16F
ASPEN          CLOUDY    52  30  43 S8        30.25S
LARAMIE        CLEAR     58  51  78 SE23G29   30.16F
CASPER         CLEAR     72  41  32 SE7G18    29.93F
CHEYENNE       CLEAR     58  54  86 S15       30.14F
SCOTTSBLUFF    CLEAR     62  49  62 SE13      30.05F
GRAND ISLAND   PTCLDY    57  56  96 SE6       30.14S
OMAHA          CLEAR     57  51  80 CALM      30.14F
SIOUX FALLS    CLEAR     49  46  90 CALM      30.12F
PIERRE         PTCLDY    56  40  55 SE10      30.02F
RAPID CITY     PTCLDY    56  40  55 SE12      29.97F
BISMARCK       CLOUDY    62  39  42 S14       29.96F
KANSAS CITY    CLEAR     58  57  97 SE6       30.15S
HILL CITY      PTCLDY    63  61  93 E8        30.11F
WICHITA        MOCLDY    67  66  97 SE8       30.08S
DODGE CITY     PTCLDY    66  61  84 E6        30.07F
OKLAHOMA CITY  MOCLDY    68  61  78 S6        30.06F
DALLAS         PTCLDY    78  71  79 SE6       30.02F
AMARILLO       PTCLDY    69  62  78 S12       30.12F
$$




USA.gov is the U.S. government's official web portal to all federal, state and local government web resources and services.